| time (UTC) | temp C | wind direction | speed KPH | gust KPH | rain 1hr cm | rain 24hr cm | rain mn cm | humidity % | barometer mb |
| 20260502183527 | 8 | 288 | 6.4 | 16.1 | 0.00 | 0.00 | 0.00 | 40 | 1016.3 |
| 20260502183101 | 9 | 239 | 6.4 | 16.1 | 0.00 | 0.00 | 0.00 | 36 | 1016.3 |
| 20260502182532 | 8 | 297 | 4.8 | 24.1 | 0.00 | 0.00 | 0.00 | 44 | 1016.3 |
| 20260502182033 | 8 | 285 | 6.4 | 24.1 | 0.00 | 0.00 | 0.00 | 39 | 1016.4 |
| 20260502181544 | 8 | 290 | 11.3 | 24.1 | 0.00 | 0.00 | 0.00 | 37 | 1016.5 |
| 20260502181031 | 8 | 309 | 6.4 | 22.5 | 0.00 | 0.00 | 0.00 | 39 | 1016.5 |
| 20260502180531 | 8 | 307 | 11.3 | 22.5 | 0.00 | 0.00 | 0.00 | 41 | 1016.5 |
| 20260502164030 | 7 | 340 | 9.7 | 20.9 | 0.00 | 0.00 | 0.00 | 41 | 1017.0 |
| 20260502163531 | 7 | 339 | 12.9 | 20.9 | 0.00 | 0.00 | 0.00 | 44 | 1017.2 |
| 20260502163052 | 7 | 292 | 6.4 | 27.4 | 0.00 | 0.00 | 0.00 | 42 | 1017.1 |
| 20260502162532 | 7 | 354 | 14.5 | 27.4 | 0.00 | 0.00 | 0.00 | 41 | 1017.1 |
| 20260502162034 | 7 | 314 | 9.7 | 20.9 | 0.00 | 0.00 | 0.00 | 42 | 1017.1 |
| 20260502161539 | 6 | 333 | 11.3 | 20.9 | 0.00 | 0.00 | 0.00 | 42 | 1017.1 |
| 20260502161031 | 6 | 336 | 11.3 | 20.9 | 0.00 | 0.00 | 0.00 | 41 | 1017.1 |
| 20260502160532 | 7 | 350 | 8.0 | 20.9 | 0.00 | 0.00 | 0.00 | 46 | 1017.1 |
| 20260502152032 | 6 | 332 | 12.9 | 27.4 | 0.00 | 0.00 | 0.00 | 50 | 1017.6 |
| 20260502151538 | 6 | 333 | 11.3 | 27.4 | 0.00 | 0.00 | 0.00 | 47 | 1017.5 |
| 20260502151027 | 6 | 48 | 12.9 | 22.5 | 0.00 | 0.00 | 0.00 | 53 | 1017.6 |
| 20260502150530 | 5 | 288 | 8.0 | 20.9 | 0.00 | 0.00 | 0.00 | 53 | 1017.6 |
| 20260502130527 | 2 | 304 | 8.0 | 16.1 | 0.00 | 0.00 | 0.00 | 72 | 1018.2 |
| 20260502123530 | 2 | 319 | 4.8 | 11.3 | 0.00 | 0.00 | 0.00 | 79 | 1018.3 |
| 20260502123039 | 2 | 311 | 3.2 | 11.3 | 0.00 | 0.00 | 0.00 | 81 | 1018.5 |
| 20260502122528 | 1 | 344 | 3.2 | 11.3 | 0.00 | 0.00 | 0.00 | 82 | 1018.5 |
| 20260502122030 | 1 | 319 | 4.8 | 11.3 | 0.00 | 0.00 | 0.00 | 81 | 1018.5 |
| 20260502121545 | 1 | 297 | 4.8 | 11.3 | 0.00 | 0.00 | 0.00 | 82 | 1018.5 |
| 20260502121030 | 1 | 289 | 3.2 | 8.0 | 0.00 | 0.00 | 0.00 | 82 | 1018.5 |
| 20260502120530 | 1 | 290 | 3.2 | 8.0 | 0.00 | 0.00 | 0.00 | 82 | 1018.4 |
| 20260502115528 | 0 | 294 | 1.6 | 6.4 | 0.00 | 0.00 | 0.00 | 84 | 1018.4 |
| 20260502115028 | 0 | 322 | 3.2 | 6.4 | 0.00 | 0.00 | 0.00 | 84 | 1018.4 |
| 20260502114542 | 0 | 310 | 0.0 | 3.2 | 0.00 | 0.00 | 0.00 | 86 | 1018.3 |
| 20260502114031 | 0 | 0 | 0.0 | 1.6 | 0.00 | 0.00 | 0.00 | 86 | 1018.3 |
| 20260502113531 | 0 | 310 | 0.0 | 3.2 | 0.00 | 0.00 | 0.00 | 86 | 1018.3 |
| 20260502113038 | 0 | 0 | 0.0 | 4.8 | 0.00 | 0.00 | 0.00 | 86 | 1018.2 |
| 20260502112530 | 0 | 0 | 0.0 | 4.8 | 0.00 | 0.00 | 0.00 | 86 | 1018.2 |
| 20260502112031 | 0 | 328 | 0.0 | 6.4 | 0.00 | 0.00 | 0.00 | 86 | 1018.2 |
| 20260502111538 | 0 | 290 | 1.6 | 6.4 | 0.00 | 0.00 | 0.00 | 86 | 1018.2 |
| 20260502111030 | 0 | 310 | 1.6 | 4.8 | 0.00 | 0.00 | 0.00 | 86 | 1018.2 |
| 20260502110528 | 0 | 302 | 1.6 | 6.4 | 0.00 | 0.00 | 0.00 | 86 | 1018.2 |
| 20260502110043 | 0 | 302 | 3.2 | 6.4 | 0.00 | 0.00 | 0.00 | 86 | 1018.1 |
| 20260502105530 | 0 | 282 | 3.2 | 4.8 | 0.00 | 0.00 | 0.00 | 86 | 1018.1 |
| 20260502105031 | 0 | 282 | 1.6 | 4.8 | 0.00 | 0.00 | 0.00 | 86 | 1018.1 |
| 20260502104541 | 0 | 282 | 1.6 | 4.8 | 0.00 | 0.00 | 0.00 | 85 | 1018.0 |
| 20260502104030 | 0 | 282 | 1.6 | 4.8 | 0.00 | 0.00 | 0.00 | 85 | 1018.0 |
| 20260502103531 | 0 | 282 | 1.6 | 4.8 | 0.00 | 0.00 | 0.00 | 85 | 1018.0 |
| 20260502103042 | 0 | 282 | 1.6 | 4.8 | 0.00 | 0.00 | 0.00 | 85 | 1018.0 |
| 20260502102531 | 0 | 282 | 1.6 | 4.8 | 0.00 | 0.00 | 0.00 | 84 | 1017.9 |
| 20260502102031 | 0 | 282 | 1.6 | 4.8 | 0.00 | 0.00 | 0.00 | 84 | 1018.0 |
| 20260502101545 | 0 | 282 | 1.6 | 6.4 | 0.00 | 0.00 | 0.00 | 84 | 1018.1 |
| 20260502101030 | 0 | 271 | 1.6 | 6.4 | 0.00 | 0.00 | 0.00 | 84 | 1018.0 |
| 20260502100528 | 0 | 267 | 3.2 | 6.4 | 0.00 | 0.00 | 0.00 | 83 | 1018.0 |
| 20260502091027 | 0 | 311 | 0.0 | 3.2 | 0.00 | 0.00 | 0.00 | 81 | 1017.8 |
| 20260502090538 | 0 | 311 | 0.0 | 3.2 | 0.00 | 0.00 | 0.00 | 81 | 1017.7 |
| 20260502071028 | 2 | 280 | 1.6 | 8.0 | 0.00 | 0.00 | 0.00 | 74 | 1017.5 |
| 20260502070530 | 2 | 344 | 1.6 | 4.8 | 0.00 | 0.00 | 0.00 | 75 | 1017.6 |
| 20260502070041 | 2 | 344 | 1.6 | 3.2 | 0.00 | 0.00 | 0.00 | 74 | 1017.6 |
| 20260502065528 | 2 | 0 | 0.0 | 4.8 | 0.00 | 0.00 | 0.00 | 75 | 1017.7 |
| 20260502065029 | 2 | 344 | 1.6 | 4.8 | 0.00 | 0.00 | 0.00 | 74 | 1017.6 |
| 20260502064538 | 2 | 344 | 1.6 | 4.8 | 0.00 | 0.00 | 0.00 | 73 | 1017.7 |
| 20260502064029 | 2 | 344 | 1.6 | 4.8 | 0.00 | 0.00 | 0.00 | 73 | 1017.7 |
| 20260502063528 | 2 | 344 | 1.6 | 6.4 | 0.00 | 0.00 | 0.00 | 73 | 1017.7 |
| 20260502063041 | 2 | 344 | 0.0 | 6.4 | 0.00 | 0.00 | 0.00 | 72 | 1017.7 |
| 20260502062530 | 2 | 344 | 1.6 | 6.4 | 0.00 | 0.00 | 0.00 | 72 | 1017.7 |
| 20260502062027 | 2 | 338 | 1.6 | 6.4 | 0.00 | 0.00 | 0.00 | 71 | 1017.7 |
| 20260502061541 | 2 | 330 | 1.6 | 6.4 | 0.00 | 0.00 | 0.00 | 71 | 1017.7 |
| 20260502061028 | 2 | 330 | 3.2 | 8.0 | 0.00 | 0.00 | 0.00 | 71 | 1017.7 |
| 20260502060529 | 2 | 323 | 3.2 | 8.0 | 0.00 | 0.00 | 0.00 | 70 | 1017.7 |
| 20260502060039 | 2 | 336 | 3.2 | 8.0 | 0.00 | 0.00 | 0.00 | 70 | 1017.7 |
| 20260502055530 | 2 | 338 | 3.2 | 8.0 | 0.00 | 0.00 | 0.00 | 70 | 1017.7 |
| 20260502055033 | 2 | 328 | 4.8 | 9.7 | 0.00 | 0.00 | 0.00 | 69 | 1017.7 |
| 20260502054544 | 2 | 335 | 6.4 | 9.7 | 0.00 | 0.00 | 0.00 | 68 | 1017.7 |
| 20260502054028 | 2 | 319 | 6.4 | 9.7 | 0.00 | 0.00 | 0.00 | 68 | 1017.7 |
| 20260502053531 | 2 | 342 | 3.2 | 8.0 | 0.00 | 0.00 | 0.00 | 68 | 1017.6 |
| 20260502053051 | 2 | 321 | 4.8 | 9.7 | 0.00 | 0.00 | 0.00 | 68 | 1017.6 |
| 20260502052532 | 2 | 333 | 6.4 | 9.7 | 0.00 | 0.00 | 0.00 | 67 | 1017.6 |
| 20260502052027 | 2 | 322 | 6.4 | 11.3 | 0.00 | 0.00 | 0.00 | 67 | 1017.6 |
| 20260502051543 | 2 | 313 | 6.4 | 12.9 | 0.00 | 0.00 | 0.00 | 66 | 1017.7 |
| 20260502051028 | 3 | 339 | 8.0 | 16.1 | 0.00 | 0.00 | 0.00 | 65 | 1017.6 |
| 20260502050531 | 3 | 349 | 6.4 | 16.1 | 0.00 | 0.00 | 0.00 | 65 | 1017.6 |
| 20260502050039 | 3 | 318 | 6.4 | 14.5 | 0.00 | 0.00 | 0.00 | 65 | 1017.5 |
| 20260502045530 | 3 | 335 | 8.0 | 12.9 | 0.00 | 0.00 | 0.00 | 65 | 1017.5 |
| 20260502045036 | 3 | 316 | 6.4 | 14.5 | 0.00 | 0.00 | 0.00 | 65 | 1017.5 |
| 20260502044538 | 3 | 332 | 6.4 | 14.5 | 0.00 | 0.00 | 0.00 | 64 | 1017.5 |
| 20260502044031 | 3 | 309 | 9.7 | 16.1 | 0.00 | 0.00 | 0.00 | 65 | 1017.5 |
| 20260502043529 | 3 | 315 | 6.4 | 16.1 | 0.00 | 0.00 | 0.00 | 66 | 1017.5 |
| 20260502043041 | 3 | 318 | 6.4 | 14.5 | 0.00 | 0.00 | 0.00 | 66 | 1017.5 |
| 20260502042530 | 3 | 344 | 6.4 | 11.3 | 0.00 | 0.00 | 0.00 | 66 | 1017.5 |
| 20260502042033 | 3 | 338 | 3.2 | 8.0 | 0.00 | 0.00 | 0.00 | 67 | 1017.5 |
| 20260502041557 | 3 | 346 | 3.2 | 6.4 | 0.00 | 0.00 | 0.00 | 67 | 1017.3 |
| 20260502041026 | 3 | 340 | 1.6 | 4.8 | 0.00 | 0.00 | 0.00 | 68 | 1017.4 |
| 20260502040528 | 3 | 340 | 1.6 | 4.8 | 0.00 | 0.00 | 0.00 | 67 | 1017.4 |
| 20260502040044 | 3 | 340 | 3.2 | 4.8 | 0.00 | 0.00 | 0.00 | 66 | 1017.4 |
| 20260502035527 | 3 | 340 | 1.6 | 6.4 | 0.00 | 0.00 | 0.00 | 66 | 1017.3 |
| 20260502035030 | 3 | 336 | 3.2 | 6.4 | 0.00 | 0.00 | 0.00 | 65 | 1017.3 |
| 20260502034542 | 3 | 319 | 1.6 | 4.8 | 0.00 | 0.00 | 0.00 | 65 | 1017.3 |
| 20260502034030 | 3 | 324 | 1.6 | 4.8 | 0.00 | 0.00 | 0.00 | 63 | 1017.3 |
| 20260502033526 | 3 | 307 | 1.6 | 6.4 | 0.00 | 0.00 | 0.00 | 63 | 1017.3 |
| 20260502033050 | 3 | 307 | 0.0 | 6.4 | 0.00 | 0.00 | 0.00 | 62 | 1017.3 |
| 20260502032529 | 3 | 309 | 1.6 | 4.8 | 0.00 | 0.00 | 0.00 | 63 | 1017.3 |
| 20260502032029 | 3 | 309 | 1.6 | 4.8 | 0.00 | 0.00 | 0.00 | 62 | 1017.3 |
| 20260502031543 | 3 | 309 | 1.6 | 4.8 | 0.00 | 0.00 | 0.00 | 64 | 1017.2 |
| 20260502031028 | 3 | 309 | 1.6 | 6.4 | 0.00 | 0.00 | 0.00 | 62 | 1017.1 |
| 20260502030527 | 3 | 288 | 1.6 | 6.4 | 0.00 | 0.00 | 0.00 | 62 | 1017.1 |
| 20260502030042 | 3 | 323 | 1.6 | 4.8 | 0.00 | 0.00 | 0.00 | 62 | 1017.0 |
| 20260502025532 | 3 | 323 | 3.2 | 6.4 | 0.00 | 0.00 | 0.00 | 61 | 1017.0 |
| 20260502025029 | 3 | 319 | 1.6 | 6.4 | 0.00 | 0.00 | 0.00 | 61 | 1017.0 |
| 20260502024542 | 3 | 312 | 1.6 | 9.7 | 0.00 | 0.00 | 0.00 | 61 | 1016.9 |
| 20260502024028 | 3 | 305 | 3.2 | 9.7 | 0.00 | 0.00 | 0.00 | 60 | 1016.9 |
| 20260502023528 | 3 | 338 | 1.6 | 6.4 | 0.00 | 0.00 | 0.00 | 60 | 1016.9 |
| 20260502023039 | 3 | 315 | 3.2 | 8.0 | 0.00 | 0.00 | 0.00 | 60 | 1017.0 |
| 20260502022530 | 3 | 347 | 3.2 | 8.0 | 0.00 | 0.00 | 0.00 | 61 | 1017.0 |
| 20260502022027 | 3 | 309 | 3.2 | 12.9 | 0.00 | 0.00 | 0.00 | 61 | 1017.0 |
| 20260502021540 | 4 | 309 | 6.4 | 12.9 | 0.00 | 0.00 | 0.00 | 60 | 1017.0 |
| 20260502021030 | 4 | 315 | 4.8 | 12.9 | 0.00 | 0.00 | 0.00 | 60 | 1016.9 |
| 20260502020527 | 4 | 326 | 6.4 | 12.9 | 0.00 | 0.00 | 0.00 | 60 | 1017.0 |
| 20260502020038 | 4 | 311 | 6.4 | 12.9 | 0.00 | 0.00 | 0.00 | 60 | 1016.8 |
| 20260502015527 | 4 | 323 | 6.4 | 11.3 | 0.00 | 0.00 | 0.00 | 59 | 1016.8 |
| 20260502015030 | 4 | 326 | 6.4 | 14.5 | 0.00 | 0.00 | 0.00 | 58 | 1016.8 |
| 20260502014538 | 4 | 322 | 6.4 | 14.5 | 0.00 | 0.00 | 0.00 | 58 | 1016.7 |
| 20260502014028 | 4 | 352 | 6.4 | 12.9 | 0.00 | 0.00 | 0.00 | 58 | 1016.7 |
| 20260502013527 | 4 | 321 | 8.0 | 14.5 | 0.00 | 0.00 | 0.00 | 57 | 1016.7 |
| 20260502013040 | 4 | 350 | 6.4 | 14.5 | 0.00 | 0.00 | 0.00 | 58 | 1016.7 |
| 20260502012526 | 4 | 310 | 4.8 | 16.1 | 0.00 | 0.00 | 0.00 | 59 | 1016.6 |
| 20260502012028 | 4 | 314 | 8.0 | 16.1 | 0.00 | 0.00 | 0.00 | 59 | 1016.6 |
| 20260502011544 | 4 | 339 | 8.0 | 12.9 | 0.00 | 0.00 | 0.00 | 58 | 1016.4 |
| 20260502011029 | 4 | 356 | 4.8 | 12.9 | 0.00 | 0.00 | 0.00 | 59 | 1016.4 |
| 20260502010529 | 4 | 340 | 6.4 | 14.5 | 0.00 | 0.00 | 0.00 | 57 | 1016.4 |
| 20260502010040 | 4 | 316 | 8.0 | 17.7 | 0.00 | 0.00 | 0.00 | 56 | 1016.3 |
| 20260502005527 | 5 | 332 | 6.4 | 17.7 | 0.00 | 0.00 | 0.00 | 56 | 1016.4 |
| 20260502005029 | 5 | 337 | 6.4 | 12.9 | 0.00 | 0.00 | 0.00 | 55 | 1016.2 |
| 20260502004538 | 5 | 322 | 6.4 | 12.9 | 0.00 | 0.00 | 0.00 | 56 | 1016.1 |
| 20260502004027 | 5 | 333 | 6.4 | 16.1 | 0.00 | 0.00 | 0.00 | 54 | 1016.0 |
| 20260502003526 | 5 | 338 | 6.4 | 16.1 | 0.00 | 0.00 | 0.00 | 54 | 1016.0 |
| 20260502003043 | 5 | 1 | 6.4 | 11.3 | 0.00 | 0.00 | 0.00 | 55 | 1016.0 |
| 20260502002532 | 5 | 321 | 6.4 | 16.1 | 0.00 | 0.00 | 0.00 | 55 | 1015.9 |
| 20260502002026 | 5 | 335 | 8.0 | 16.1 | 0.00 | 0.00 | 0.00 | 55 | 1015.8 |
| 20260502001543 | 5 | 293 | 8.0 | 17.7 | 0.00 | 0.00 | 0.00 | 55 | 1015.8 |
| 20260502001030 | 5 | 338 | 8.0 | 17.7 | 0.00 | 0.00 | 0.00 | 54 | 1015.8 |
| 20260502000528 | 5 | 320 | 8.0 | 16.1 | 0.00 | 0.00 | 0.00 | 53 | 1015.6 |
| 20260502000046 | 5 | 307 | 11.3 | 17.7 | 0.00 | 0.00 | 0.00 | 54 | 1015.6 |
| 20260501235527 | 5 | 319 | 11.3 | 17.7 | 0.00 | 0.00 | 0.00 | 52 | 1015.5 |
| 20260501235028 | 5 | 330 | 8.0 | 14.5 | 0.00 | 0.00 | 0.00 | 53 | 1015.6 |
| 20260501234540 | 5 | 335 | 8.0 | 14.5 | 0.00 | 0.00 | 0.00 | 53 | 1015.5 |
| 20260501234030 | 5 | 334 | 8.0 | 14.5 | 0.00 | 0.00 | 0.00 | 52 | 1015.5 |
| 20260501233535 | 5 | 336 | 6.4 | 19.3 | 0.00 | 0.00 | 0.00 | 54 | 1015.4 |
| 20260501233038 | 5 | 325 | 8.0 | 19.3 | 0.00 | 0.00 | 0.00 | 56 | 1015.4 |
| 20260501232530 | 5 | 20 | 9.7 | 17.7 | 0.00 | 0.00 | 0.00 | 53 | 1015.4 |
| 20260501232033 | 5 | 307 | 6.4 | 16.1 | 0.00 | 0.00 | 0.00 | 54 | 1015.4 |
| 20260501231557 | 5 | 23 | 9.7 | 17.7 | 0.00 | 0.00 | 0.00 | 54 | 1015.4 |
| 20260501231031 | 5 | 323 | 8.0 | 20.9 | 0.00 | 0.00 | 0.00 | 53 | 1015.4 |
| 20260501230533 | 5 | 25 | 8.0 | 20.9 | 0.00 | 0.00 | 0.00 | 55 | 1015.3 |
| 20260501230042 | 5 | 331 | 9.7 | 20.9 | 0.00 | 0.00 | 0.00 | 53 | 1015.2 |
| 20260501225528 | 5 | 317 | 9.7 | 19.3 | 0.00 | 0.00 | 0.00 | 53 | 1015.2 |
| 20260501225035 | 6 | 334 | 11.3 | 19.3 | 0.00 | 0.00 | 0.00 | 53 | 1015.2 |
| 20260501224544 | 6 | 343 | 8.0 | 20.9 | 0.00 | 0.00 | 0.00 | 54 | 1015.3 |
| 20260501224031 | 6 | 284 | 9.7 | 20.9 | 0.00 | 0.00 | 0.00 | 54 | 1015.1 |
| 20260501223528 | 6 | 8 | 9.7 | 17.7 | 0.00 | 0.00 | 0.00 | 54 | 1015.2 |
| 20260501223108 | 6 | 21 | 9.7 | 17.7 | 0.00 | 0.00 | 0.00 | 53 | 1015.3 |
| 20260501222530 | 6 | 346 | 11.3 | 17.7 | 0.00 | 0.00 | 0.00 | 52 | 1015.2 |
| 20260501222030 | 6 | 335 | 6.4 | 17.7 | 0.00 | 0.00 | 0.00 | 54 | 1015.2 |
| 20260501221540 | 6 | 37 | 11.3 | 17.7 | 0.00 | 0.00 | 0.00 | 52 | 1015.1 |
| 20260501221027 | 6 | 359 | 8.0 | 14.5 | 0.00 | 0.00 | 0.00 | 53 | 1015.1 |
| 20260501220530 | 6 | 350 | 6.4 | 16.1 | 0.00 | 0.00 | 0.00 | 53 | 1014.8 |
| 20260501220040 | 6 | 309 | 8.0 | 19.3 | 0.00 | 0.00 | 0.00 | 51 | 1014.8 |
| 20260501215531 | 6 | 318 | 8.0 | 20.9 | 0.00 | 0.00 | 0.00 | 53 | 1014.7 |
| 20260501215031 | 6 | 320 | 9.7 | 20.9 | 0.00 | 0.00 | 0.00 | 52 | 1014.7 |
| 20260501214536 | 6 | 337 | 11.3 | 20.9 | 0.00 | 0.00 | 0.00 | 50 | 1014.7 |
| 20260501214029 | 6 | 322 | 8.0 | 12.9 | 0.00 | 0.00 | 0.00 | 49 | 1014.7 |
| 20260501213530 | 7 | 343 | 8.0 | 12.9 | 0.00 | 0.00 | 0.00 | 50 | 1014.7 |
| 20260501213041 | 7 | 297 | 3.2 | 9.7 | 0.00 | 0.00 | 0.00 | 50 | 1014.7 |
| 20260501212528 | 7 | 285 | 3.2 | 8.0 | 0.00 | 0.00 | 0.00 | 49 | 1014.7 |
| 20260501212031 | 7 | 309 | 4.8 | 14.5 | 0.00 | 0.00 | 0.00 | 49 | 1014.6 |
| 20260501211542 | 6 | 304 | 6.4 | 14.5 | 0.00 | 0.00 | 0.00 | 51 | 1014.5 |
| 20260501211028 | 6 | 318 | 6.4 | 12.9 | 0.00 | 0.00 | 0.00 | 51 | 1014.6 |
| 20260501210531 | 6 | 293 | 4.8 | 17.7 | 0.00 | 0.00 | 0.00 | 49 | 1014.5 |
| 20260501210037 | 7 | 325 | 8.0 | 17.7 | 0.00 | 0.00 | 0.00 | 49 | 1014.5 |
| 20260501205528 | 7 | 341 | 6.4 | 12.9 | 0.00 | 0.00 | 0.00 | 50 | 1014.4 |
| 20260501205031 | 7 | 344 | 4.8 | 16.1 | 0.00 | 0.00 | 0.00 | 49 | 1014.4 |
| 20260501204609 | 7 | 310 | 6.4 | 16.1 | 0.00 | 0.00 | 0.00 | 50 | 1014.4 |
| 20260501204027 | 7 | 312 | 8.0 | 22.5 | 0.00 | 0.00 | 0.00 | 48 | 1014.5 |
| 20260501203527 | 7 | 333 | 8.0 | 22.5 | 0.00 | 0.00 | 0.00 | 50 | 1014.4 |
| 20260501203038 | 7 | 285 | 6.4 | 16.1 | 0.00 | 0.00 | 0.00 | 48 | 1014.4 |
| 20260501202529 | 7 | 281 | 8.0 | 16.1 | 0.00 | 0.00 | 0.00 | 46 | 1014.5 |
| 20260501202029 | 7 | 285 | 6.4 | 16.1 | 0.00 | 0.00 | 0.00 | 49 | 1014.4 |
| 20260501201543 | 7 | 278 | 8.0 | 16.1 | 0.00 | 0.00 | 0.00 | 48 | 1014.4 |
| 20260501201031 | 7 | 317 | 8.0 | 14.5 | 0.00 | 0.00 | 0.00 | 49 | 1014.4 |
| 20260501200531 | 7 | 299 | 6.4 | 16.1 | 0.00 | 0.00 | 0.00 | 47 | 1014.3 |
| 20260501200043 | 7 | 127 | 9.7 | 16.1 | 0.00 | 0.00 | 0.00 | 50 | 1014.3 |
| 20260501195531 | 7 | 297 | 4.8 | 17.7 | 0.00 | 0.00 | 0.00 | 48 | 1014.3 |
| 20260501195028 | 7 | 283 | 6.4 | 17.7 | 0.00 | 0.00 | 0.00 | 48 | 1014.3 |
| 20260501194537 | 7 | 294 | 6.4 | 19.3 | 0.00 | 0.00 | 0.00 | 49 | 1014.3 |
| 20260501194028 | 7 | 323 | 11.3 | 19.3 | 0.00 | 0.00 | 0.00 | 49 | 1014.4 |
| 20260501193530 | 7 | 93 | 4.8 | 11.3 | 0.00 | 0.00 | 0.00 | 51 | 1014.3 |
| 20260501193040 | 7 | 304 | 3.2 | 17.7 | 0.00 | 0.00 | 0.00 | 49 | 1014.2 |
| 20260501192530 | 7 | 303 | 4.8 | 17.7 | 0.00 | 0.00 | 0.00 | 47 | 1014.3 |
| 20260501192030 | 7 | 314 | 9.7 | 16.1 | 0.00 | 0.00 | 0.00 | 47 | 1014.4 |
| 20260501191543 | 7 | 357 | 6.4 | 12.9 | 0.00 | 0.00 | 0.00 | 50 | 1014.3 |
| 20260501191031 | 7 | 334 | 4.8 | 16.1 | 0.00 | 0.00 | 0.00 | 51 | 1014.3 |
| 20260501190531 | 7 | 9 | 4.8 | 17.7 | 0.00 | 0.00 | 0.00 | 52 | 1014.3 |
| 20260501190043 | 7 | 318 | 9.7 | 17.7 | 0.00 | 0.00 | 0.00 | 52 | 1014.2 |
| 20260501185531 | 7 | 6 | 8.0 | 19.3 | 0.00 | 0.00 | 0.00 | 53 | 1014.2 |
| 20260501185030 | 7 | 347 | 8.0 | 19.3 | 0.00 | 0.00 | 0.00 | 54 | 1014.3 |
| 20260501184546 | 7 | 348 | 8.0 | 16.1 | 0.00 | 0.00 | 0.00 | 57 | 1014.4 |
| 20260501184029 | 6 | 295 | 6.4 | 14.5 | 0.00 | 0.00 | 0.00 | 54 | 1014.3 |